www.pogodaiklimat.ru

Погода и климат >> Архив погоды >> Саудовская Аравия >> Арафат


ПОГОДА в Арафате

  • Прогноз погоды в Арафате
  • Монитор погоды в Арафате

АРХИВ ПОГОДЫ в Арафате

Время (UTC), дата Ветер
(напр.,м/с)
 
Видим.   Явления Облачность Т
(С)
Тd
(С)
f
(%)
Тe
(С)
Тes
(С)
Комфортность P
(гПа)
Po
(гПа)
Тmin
(С)
Tmax
(С)
R
(мм)
R24
(мм)
S
(см)
15 18.08 ЮЗ 4 10 км 5/5 1200 м
[Sc diur, vesp]
+38.7 +20.0 34 +44 +44 опасность
перегрева
1002.5 969.4
18 18.08 ЮЗ 3 10 км 3/3 1200 м
[Sc diur, vesp]
+36.0 +19.0 37 +41 +41 опасность
перегрева
1004.8 971.6 +42.0
21 18.08 Ю 2 10 км ясно +34.6 +24.0 54 +46 +46 опасность
перегрева
1004.3 971.1
00 19.08 штиль 0 10 км ясно +33.2 +24.0 59 +45 +45 опасность
перегрева
1002.9 969.8
03 19.08 штиль 0 10 км ясно +33.2 +24.0 59 +45 +45 опасность
перегрева
1002.9 969.8
06 19.08 З 2 10 км 4/1 1200 м
[Sc diur, vesp Ac trans]
+34.4 +22.0 49 +43 +51 опасность
перегрева
1006.0 972.7 +31.4
09 19.08 СЗ 2 10 км ясно +39.0 +17.0 28 +42 +63 опасность
перегрева
1005.6 972.5
12 19.08 СЗ 1 10 км ясно +41.4 +15.0 21 +42 +58 опасность
перегрева
1003.4 970.4
15 19.08 СЗ 4 10 км ясно +38.4 +17.0 29 +41 +41 опасность
перегрева
1003.9 970.7
18 19.08 С 3 10 км ясно +36.7 +13.0 24 +37 +37 очень
жарко
1006.1 972.7 +43.0
21 19.08 СЗ 2 10 км ясно +34.0 +14.0 30 +35 +35 очень
жарко
1005.9 972.7
00 20.08 штиль 0 10 км ясно +32.4 +15.0 35 +34 +34 очень
жарко
1005.1 972.0
03 20.08 штиль 0 10 км ясно +31.7 +15.0 36 +34 +34 душно 1005.7 972.4
06 20.08 С 2 10 км 3/0
[Ci fib]
+35.5 +11.0 23 +35 +44 очень
жарко
1006.2 973.0 +31.2
09 20.08 СЗ 3 10 км 3/0
[Ci fib]
+40.2 +7.0 13 +38 +56 опасность
солнечного
удара
1005.8 972.7
12 20.08 СЗ 3 10 км 4/3 1200 м
[Cu hum Ac trans]
+42.0 +13.0 18 +42 +49 опасность
перегрева
1003.9 970.9
15 20.08 СЗ 3 10 км 3/0
[Ac trans]
+39.0 +17.0 28 +42 +42 опасность
перегрева
1004.8 971.5
18 20.08 З 2 10 км 3/0
[Ac trans]
+35.2 +14.0 28 +36 +36 очень
жарко
1006.8 973.5 +42.6
21 20.08 штиль 0 10 км ясно +33.6 +14.0 31 +35 +35 душно 1005.7 972.6
00 21.08 штиль 0 10 км 4/3 1200 м
[Sc diur, vesp Ac trans]
+31.7 +13.0 32 +33 +33 жарко 1005.1 972.0
03 21.08 штиль 0 10 км 4/1 1200 м
[Sc diur, vesp Ac trans]
+30.3 +11.0 30 +30 +30 жарко 1005.5 972.1
06 21.08 СЗ 3 10 км 1/0
[Ac trans]
+35.4 +9.0 20 +34 +42 очень
жарко
1006.3 973.0 +29.0
09 21.08 З 2 10 км 1/0
[Cc]
+40.4 +4.0 11 +37 +58 опасность
солнечного
удара
1005.1 972.0
12 21.08 С 3 10 км 3/0
[Ac lent]
+42.0 +11.0 16 +41 +50 опасность
перегрева
1003.2 970.1
15 21.08 З 4 10 км 3/0
[Ac lent]
+39.2 +10.0 17 +38 +38 очень
жарко
1003.4 970.1
18 21.08 С 1 10 км ясно +35.5 +15.0 29 +37 +37 душно 1003.9 970.7 +42.5
21 21.08 штиль 0 10 км 4/4 1200 м
[Sc diur, vesp]
+33.4 +14.0 31 +35 +35 душно 1003.7 970.6
00 22.08 штиль 0 10 км 3/3 1200 м
[Sc diur, vesp]
+32.5 +14.0 33 +34 +34 очень
жарко
1002.6 969.6
03 22.08 штиль 0 10 км ясно +29.7 +14.0 38 +31 +31 жарко 1002.6 969.3
06 22.08 С 2 10 км ясно +34.0 +13.0 28 +34 +45 очень
жарко
1003.2 969.9 +29.0
09 22.08 З 2 10 км 3/0
[Ac trans]
+40.8 +16.0 24 +43 +62 опасность
перегрева
1002.0 969.0
12 22.08 З 4 10 км 3/0
[Ac trans]
+43.4 +15.0 19 +44 +52 опасность
перегрева
1001.1 968.2
15 22.08 СЗ 3 10 км 3/0
[Ac trans]
+39.6 +18.0 29 +43 +44 опасность
перегрева
1001.8 968.6
18 22.08 З 2 10 км 1/0
[Ac trans]
+36.0 +19.0 37 +41 +41 опасность
перегрева
1003.2 970.0 +45.0
21 22.08 С 2 10 км 3/3 1200 м
[Sc diur, vesp]
+34.6 +19.0 40 +40 +40 очень
душно
1002.9 969.9
00 23.08 штиль 0 10 км 3/3 1200 м
[Sc diur, vesp]
+33.0 +20.0 46 +39 +39 очень
душно
1001.9 969.0
03 23.08 штиль 0 10 км 3/0
[Ac trans]
+31.0 +24.0 66 +43 +43 опасность
перегрева
1002.9 969.8
06 23.08 Ю 3 10 км ясно +34.2 +18.0 38 +38 +47 очень
душно
1004.7 971.4 +30.0
09 23.08 ЮЗ 4 10 км ясно +38.5 +17.0 28 +41 +57 опасность
перегрева
1004.9 971.8
12 23.08 ЮЗ 3 10 км 3/0
[Ac trans]
+40.8 +17.0 25 +43 +52 опасность
перегрева
1003.2 970.2
15 23.08 СЗ 4 10 км 1/0
[Ci fib]
+40.6 +13.0 20 +41 +41 опасность
перегрева
1003.0 969.8
18 23.08 З 2 10 км 3/0
[Ci fib]
+36.8 +15.0 27 +38 +38 очень
душно
1006.0 972.7 +42.2
21 23.08 Ю 4 10 км гроза без осадков 4/4 1050 м
[Cb cap]
+33.0 +21.0 49 +40 +40 очень
душно
1006.1 972.8
00 24.08 Ю 2 10 км 3/3 1200 м
[Sc diur, vesp]
+31.0 +22.0 59 +40 +40 очень
душно
1005.6 972.4
03 24.08 штиль 0 10 км ясно +30.0 +21.0 59 +38 +38 очень
душно
1006.2 972.9
06 24.08 СЗ 1 10 км ясно +33.2 +21.0 49 +41 +52 опасность
перегрева
1007.2 973.8 +30.0
09 24.08 ЮЗ 2 10 км ясно +39.4 +13.0 21 +39 +60 опасность
солнечного
удара
1006.2 973.0
12 24.08 СЗ 3 10 км 3/3 1200 м
[Cu hum]
+42.0 +9.0 14 +40 +48 очень
жарко
1004.3 971.2
15 24.08 СЗ 3 10 км 3/3 1200 м
[Sc diur, vesp]
+40.3 +12.0 19 +40 +40 очень
жарко
1004.1 970.8
18 24.08 штиль 0 10 км 4/4 1200 м
[Sc diur, vesp]
+36.5 +14.0 26 +37 +37 очень
жарко
1006.6 973.2 +43.0
21 24.08 штиль 0 10 км 3/3 1200 м
[Cu med, cong]
+34.0 +13.0 28 +34 +34 очень
жарко
1006.5 973.3
00 25.08 штиль 0 10 км ясно +32.0 +13.0 31 +33 +33 жарко 1005.1 972.0
03 25.08 штиль 0 10 км ясно +30.6 +12.0 32 +31 +31 жарко 1005.0 971.7
06 25.08 Ю 2 10 км ясно +33.2 +18.0 41 +38 +47 очень
душно
1007.7 974.3 +30.0
09 25.08 З 3 10 км ясно +37.8 +18.0 31 +41 +58 опасность
перегрева
1005.9 972.7
12 25.08 С 2 10 км 3/3 1200 м
[Cu hum]
+41.4 +16.0 23 +43 +52 опасность
перегрева
1003.3 970.2

 

Местоположение метеостанции Арафат (Саудовская Аравия): широта 21.33 долгота 39.97 высота над уровнем моря 308 м.

В архиве по умолчанию представлена погода в Арафате за последнюю неделю. Архивные данные за месяц целиком и за предыдущие месяцы, начиная с января 2011 года, Вы можете получить, выбрав интересующий диапазон дат из раскрывающегося списка и нажав кнопку "Ввод!".


*Определитесь, кто Вы:
робот инопланетянин человек

Внимание! Время в таблицах - всемирное. Для получения местного времени необходимо прибавить поправку, которая равна 3 ч.

Смотрите также архив погоды в соседних городах и на ближайших метеорологических станциях:

Погода в Мине (Саудовская Аравия) (14 км)
Погода в Мекке (Саудовская Аравия) (24 км)
Погода в Аль-Таифе (Саудовская Аравия) (62 км)
Погода в Джидде (Саудовская Аравия) (92 км)
Погода в Аль-Бахе (Саудовская Аравия) (209 км)
Погода в Бише (Саудовская Аравия) (315 км)
Погода в Порт-Судане (Судан) (346 км)
Погода в Медине (Саудовская Аравия) (359 км)
Погода в Янбу (Саудовская Аравия) (367 км)
Погода в Абхе (Саудовская Аравия) (444 км)

Пояснения к столбцам:

Ветер - указаны скорость ветра в м/с - средняя за 10 мин, порывы в срок и между сроками (в фигурных скобках) и направление, откуда дует ветер: С - северный, СВ - северо-восточный, В - восточный, ЮВ - юго-восточный, Ю - южный, ЮЗ - юго-западный, З - западный, СЗ - северо-западный.
Видимость - горизонтальная дальность видимости в метрах или километрах. При видимости от 1 до 10 км при отсутствии осадков обычно наблюдается дымка, при ухудшении видимости до 1 км и менее - туман. В сухую погоду видимость может ухудшаться дымом, пылью или мглою.
Явления - указаны атмосферные явления, наблюдавшиеся в срок или в последний час перед сроком; фигурными скобками обозначены явления, наблюдавшиеся между сроками (за 1-3 часа до срока); квадратными скобками обозначены град или гололедные отложения с указанием их диаметра в мм.
Облачность - указаны через наклонную черту общая и нижняя облачность в баллах и высота нижней границы облаков в метрах; квадратными скобками обозначены формы облаков: Ci - перистые, Cs - перисто-слоистые, Cc - перисто-кучевые, Ac - высококучевые, As - высокослоистые, Sc - слоисто-кучевые, Ns - слоисто-дождевые, Cu - кучевые, Cb - кучево-дождевые. Подробнее классификацию облаков см. в Атласе облаков (PDF).
T - Температура воздуха - температура, измеренная на высоте 2 м над землей.
Td - Температура точки росы - температура, при понижении до которой содержащийся в воздухе водяной пар достигнет насыщения.
f - Относительная влажность воздуха - влажноcть воздуха, измеренная на высоте 2 м над землей.
Te - Эффективная температура - температура, которую ощущает одетый по сезону человек в тени. Характеристика душности погоды. При расчете учитывается влияние влажности воздуха и скорости ветра на теплоощущения человека.
Tes - Эффективная температура на солнце - температура, которую ощущает человек, с поправкой на солнечный нагрев. Характеристика знойности погоды. Зависит от высоты солнца над горизонтом, облачности и скорости ветра. Ночью, в пасмурную погоду, а также при ветре 12 м/с и более поправка равна нулю.
P - Атмосферное давление - приведенное к уровню моря атмосферное давление.
Po - Атмосферное давление - измеренное на уровне метеостанции атмосферное давление.
Tmin - Минимальная температура - минимум температуры воздуха на высоте 2 м над землей.
Tmax - Максимальная температура - максимум температуры воздуха на высоте 2 м над землей.
R - Количество осадков - Количество выпавших осадков за период времени, мм. При наведении курсора мыши на число - период времени, за который выпало указанное количество осадков.
R24 - Количество осадков - Количество выпавших осадков за 24 часа, мм.
S - Снежный покров - Высота снежного покрова, см. При наведении курсора мыши на число - состояние снежного покрова и степень покрытия местности в баллах.